Zurück zum Katalog

CENTISPACE-1 S12

AktivNavigationLEO
NORAD 62581·PAYLOAD·🇨🇳 China

Gestartet Jan 13, 2025 von Yellow Sea Launch Area

Loading…

Nächste Überflüge (nächste 24 Stunden)

TLE

AktuellSource: Space-Track

Epoche: Sep 14, 2026, 22:48 UTC

1 62581U 25007G   26257.95011170 -.00000056  00000-0  79850-4 0  9997
2 62581  54.9789 337.4402 0013455 308.1846  51.7898 13.80621189 87133

Verfolge CENTISPACE-1 S12 in Echtzeit mit AllMySat

Download on the App Store